This is the latest recevied weather packets stored in our database for station/object K8RRT. If no packets are shown the sender has not sent any weather packets the latest 10 day(s).
| Time | Temp. | Humidity | Pressure | Rain* | Wind** | Luminosity | Snow |
|---|---|---|---|---|---|---|---|
| 1778005714 | 23.89° C | 50% | 1007.3 hPa | 0 mm | - | 369 W/m² | - |
| 1778005411 | 23.89° C | 52% | 1007.4 hPa | 0 mm | - | 487 W/m² | - |
| 1778005108 | 23.33° C | 52% | 1007.4 hPa | 0 mm | - | 477 W/m² | - |
| 1778004805 | 23.89° C | 52% | 1007.4 hPa | 0 mm | - | 415 W/m² | - |
| 1778004502 | 23.33° C | 51% | 1007.4 hPa | 0 mm | - | 393 W/m² | - |
| 1778004198 | 23.33° C | 52% | 1007.3 hPa | 0 mm | - | 344 W/m² | - |
| 1778003895 | 23.33° C | 51% | 1007.4 hPa | 0 mm | - | 356 W/m² | - |
| 1778003591 | 23.33° C | 51% | 1007.3 hPa | 0 mm | - | 359 W/m² | - |
| 1778003288 | 23.33° C | 51% | 1007.6 hPa | 0 mm | - | 352 W/m² | - |
| 1778002986 | 23.33° C | 52% | 1007.5 hPa | 0 mm | - | 341 W/m² | - |
| 1778002681 | 23.33° C | 52% | 1007.5 hPa | 0 mm | - | 293 W/m² | - |
| 1778002378 | 23.33° C | 53% | 1007.5 hPa | 0 mm | - | 312 W/m² | - |
| 1778002075 | 23.33° C | 53% | 1007.4 hPa | 0 mm | - | 322 W/m² | - |
| 1778001772 | 23.33° C | 53% | 1007.7 hPa | 0 mm | - | 333 W/m² | - |
| 1778001467 | 23.33° C | 51% | 1007.5 hPa | 0 mm | - | 355 W/m² | - |
| 1778001164 | 23.33° C | 52% | 1007.7 hPa | 0 mm | - | 301 W/m² | - |
| 1778000861 | 23.33° C | 51% | 1007.7 hPa | 0 mm | - | 307 W/m² | - |
| 1778000558 | 23.33° C | 50% | 1007.7 hPa | 0 mm | - | 379 W/m² | - |
| 1778000253 | 23.33° C | 52% | 1007.5 hPa | 0 mm | - | 385 W/m² | - |
| 1777999949 | 23.33° C | 51% | 1007.4 hPa | 0 mm | - | 386 W/m² | - |
| 1777999645 | 23.89° C | 52% | 1007.4 hPa | 0 mm | - | 373 W/m² | - |
| 1777999342 | 23.89° C | 53% | 1007.3 hPa | 0 mm | - | 435 W/m² | - |
| 1777999040 | 23.89° C | 50% | 1007.2 hPa | 0 mm | - | 583 W/m² | - |
| 1777998739 | 23.89° C | 52% | 1007.4 hPa | 0 mm | - | 573 W/m² | - |
| 1777998435 | 23.89° C | 52% | 1007.7 hPa | 0 mm | - | 490 W/m² | - |
* Rain latest hour (hover to see other rain measurements)
** Current wind speed in m/s (hover to see current wind gust speed)